XMM-NEWTON

Last updated on Jan. 25, 2020, 4:44 a.m. UTC

1 25989U 99066A   20025.95876684 -.00000032  00000-0  00000+0 0  9990
2 25989  71.1302 325.1754 7320290  93.9579   0.4893  0.50124361 25666
UTC
Height (km)
Latitude
Longitude
Inclination
Orbital Period
UTC large
Height (km)
Speed (km/s)
/
Latitude / Longitude
Inclination (degrees)
Orbital Period (minutes)
Azimuth
Elevation
Range (km)
Doppler Factor
iOS Compass Heading
iOS Angle

Next 30 passes for location: Hong Kong

Rise time Rise Azimuth (degrees) Set time Set Azimuth (degrees) Duration Max altitude (degrees)

No matching passes for this satellites